FW8979 Weather Reports


Display with metric or nautical units.
time (UTC)temp
F
wind
direction
speed
MPH
gust
MPH
rain 1hr
in
rain 24hr
in
rain mn
in
humidity
%
barometer
mb
20260906120400 71 177 0.0 0.0 0.00 0.16 0.16 99 1003.4
20260906115856 71 170 1.0 2.0 0.00 0.16 0.16 99 1003.6
20260906115351 71 138 0.0 0.0 0.00 0.16 0.16 99 1003.6
20260906114851 70 159 0.0 0.0 0.00 0.16 0.16 99 1003.5
20260906114346 70 159 0.0 0.0 0.00 0.16 0.16 99 1003.5
20260906113841 70 160 0.0 0.0 0.00 0.16 0.16 99 1003.1
20260906113340 70 158 0.0 0.0 0.00 0.16 0.16 99 1003.3
20260906112836 70 125 0.0 0.0 0.00 0.16 0.16 99 1003.4
20260906112332 70 126 0.0 0.0 0.00 0.16 0.16 99 1003.3
20260906111826 70 125 0.0 0.0 0.00 0.16 0.16 99 1003.2
20260906111326 70 125 0.0 0.0 0.00 0.16 0.16 99 1003.1
20260906110821 70 125 0.0 0.0 0.00 0.16 0.16 99 1003.0
20260906110317 70 125 0.0 0.0 0.00 0.16 0.16 99 1003.0
20260906105815 70 125 0.0 0.0 0.00 0.16 0.16 99 1002.9
20260906105311 70 125 0.0 0.0 0.00 0.16 0.16 99 1002.9
20260906104807 70 125 0.0 0.0 0.00 0.16 0.16 99 1002.6
20260906104306 70 125 0.0 0.0 0.00 0.16 0.16 99 1002.7
20260906103804 70 125 0.0 0.0 0.00 0.16 0.16 99 1002.7
20260906103303 70 125 0.0 0.0 0.00 0.16 0.16 99 1002.8
20260906102759 70 151 0.0 1.0 0.00 0.16 0.16 99 1002.7
20260906102258 70 139 0.0 1.0 0.00 0.16 0.16 99 1002.5
20260906101754 70 112 0.0 0.0 0.00 0.16 0.16 99 1002.6
20260906101248 70 127 0.0 0.0 0.00 0.16 0.16 99 1003.0
20260906100744 70 148 0.0 0.0 0.00 0.16 0.16 99 1002.8
20260906100243 70 162 0.0 1.0 0.00 0.16 0.16 99 1002.9
20260906095738 70 154 2.0 3.0 0.00 0.16 0.16 99 1002.8
20260906095233 70 172 0.0 0.0 0.00 0.16 0.16 99 1002.9
20260906094732 70 158 1.0 1.0 0.00 0.16 0.16 99 1002.7
20260906094228 70 133 0.0 0.0 0.00 0.16 0.16 99 1003.0
20260906093724 70 152 0.0 0.0 0.00 0.16 0.16 99 1002.8
20260906093220 70 166 1.0 1.0 0.00 0.16 0.16 99 1002.8
20260906092715 70 131 0.0 1.0 0.00 0.16 0.16 99 1002.9
20260906092214 70 108 0.0 0.0 0.00 0.16 0.16 99 1003.0
20260906091711 70 125 0.0 0.0 0.00 0.16 0.16 99 1003.0
20260906091207 70 153 0.0 0.0 0.00 0.16 0.16 99 1003.0
20260906090703 70 135 0.0 0.0 0.00 0.16 0.16 99 1002.9
20260906090202 70 120 1.0 1.0 0.00 0.16 0.16 99 1003.0
20260906085701 70 192 0.0 0.0 0.05 0.16 0.16 99 1002.8
20260906085200 70 109 1.0 1.0 0.05 0.16 0.16 99 1002.7
20260906084655 70 177 0.0 0.0 0.05 0.16 0.16 99 1003.0
20260906084155 70 167 2.0 2.0 0.00 0.15 0.15 99 1003.0
20260906083649 70 161 0.0 0.0 0.00 0.15 0.15 99 1002.8
20260906083145 70 138 0.0 0.0 0.00 0.15 0.15 99 1002.7
20260906082640 70 184 0.0 1.0 0.00 0.15 0.15 99 1002.7
20260906082136 70 115 0.0 0.0 0.00 0.15 0.15 99 1002.7
20260906081632 70 147 0.0 0.0 0.00 0.15 0.15 99 1002.6
20260906081126 70 117 0.0 0.0 0.00 0.15 0.15 99 1002.8
20260906080623 70 198 0.0 1.0 0.00 0.15 0.15 99 1002.7
20260906080119 70 160 0.0 0.0 0.00 0.15 0.15 99 1003.0
20260906075618 70 178 1.0 1.0 0.00 0.15 0.15 99 1002.7
20260906075113 70 132 1.0 2.0 0.00 0.15 0.15 99 1002.8
20260906074608 70 170 0.0 1.0 0.00 0.15 0.15 99 1002.7
20260906074101 70 84 0.0 0.0 0.00 0.15 0.15 99 1002.7
20260906073557 70 178 0.0 0.0 0.00 0.15 0.15 99 1003.2
20260906073052 70 150 1.0 1.0 0.00 0.15 0.15 99 1003.0
20260906072547 70 121 0.0 1.0 0.00 0.15 0.15 99 1003.0
20260906072043 70 170 0.0 1.0 0.00 0.15 0.15 99 1003.3
20260906071539 70 181 1.0 2.0 0.00 0.15 0.15 99 1003.3
20260906071034 70 138 1.0 1.0 0.00 0.15 0.15 99 1003.5
20260906070530 70 138 1.0 1.0 0.00 0.15 0.15 99 1003.3
20260906070026 70 114 1.0 1.0 0.00 0.15 0.15 99 1003.4
20260906065525 70 176 1.0 1.0 0.00 0.15 0.15 99 1003.7
20260906065021 71 170 4.0 5.0 0.00 0.15 0.15 99 1003.7
20260906064516 71 135 1.0 1.0 0.00 0.15 0.15 99 1003.8
20260906064011 71 164 3.0 5.0 0.00 0.15 0.15 99 1003.6
20260906063507 71 186 1.0 1.0 0.00 0.15 0.15 99 1003.6
20260906063002 71 135 0.0 1.0 0.00 0.15 0.15 99 1003.6
20260906062456 71 144 1.0 1.0 0.00 0.15 0.15 99 1003.1
20260906061951 71 171 1.0 1.0 0.00 0.15 0.15 98 1003.3
20260906061448 71 161 0.0 1.0 0.00 0.15 0.15 99 1003.5
20260906060941 71 168 0.0 0.0 0.00 0.15 0.15 98 1003.3
20260906060439 71 117 0.0 1.0 0.00 0.15 0.15 98 1003.1
20260906055935 71 134 2.0 2.0 0.07 0.15 0.15 98 1003.4
20260906055431 71 173 1.0 2.0 0.19 0.15 0.15 98 1004.2
20260906054926 71 144 0.0 1.0 0.17 0.14 0.14 98 1004.5
20260906054420 71 74 1.0 1.0 0.05 0.12 0.12 98 1004.4
20260906053916 71 176 0.0 0.0 0.00 0.11 0.11 98 1004.3
20260906053412 71 214 0.0 1.0 0.00 0.11 0.11 97 1004.2
20260906052908 71 311 1.0 1.0 0.00 0.11 0.11 97 1003.8
20260906052404 71 183 0.0 0.0 0.00 0.11 0.11 97 1003.3
20260906051901 71 156 1.0 1.0 0.07 0.11 0.11 97 1003.6
20260906051401 71 203 3.0 3.0 0.42 0.11 0.11 97 1004.4
20260906050856 72 203 5.0 6.0 0.78 0.10 0.10 97 1004.8
20260906050351 72 197 2.0 2.0 0.97 0.06 0.06 97 1005.3
20260906045850 72 186 7.0 9.0 1.87 1.43 1.43 97 1005.6
20260906045349 72 214 3.0 5.0 1.79 1.34 1.34 96 1005.6
20260906044846 72 313 5.0 8.0 0.54 1.11 1.11 95 1005.6
20260906044346 73 356 3.0 3.0 0.07 1.03 1.03 94 1005.4
20260906043841 73 73 4.0 6.0 0.00 1.02 1.02 95 1004.7
20260906043337 73 74 3.0 3.0 0.00 1.02 1.02 96 1004.2
20260906042833 73 329 4.0 6.0 0.05 1.02 1.02 95 1003.7
20260906042331 73 128 3.0 3.0 0.35 1.02 1.02 96 1003.0
20260906041827 72 130 8.0 11.0 0.47 1.01 1.01 97 1003.0
20260906041323 72 170 4.0 7.0 0.42 0.96 0.96 97 1003.6
20260906040823 72 123 2.0 3.0 1.09 0.94 0.94 97 1003.4
20260906040318 73 192 5.0 9.0 3.07 0.90 0.90 98 1003.8
20260906035813 73 214 9.0 14.0 3.71 0.74 0.74 96 1004.6
20260906035308 74 59 6.0 10.0 2.29 0.38 0.38 94 1004.4
20260906034803 77 71 3.0 5.0 0.66 0.11 0.11 90 1003.9
20260906034258 80 90 3.0 3.0 0.00 0.00 0.00 77 1003.8
20260906033754 78 245 1.0 2.0 0.00 0.00 0.00 80 1003.7
20260906033253 77 62 4.0 5.0 0.00 0.00 0.00 86 1003.8
20260906032750 77 150 0.0 0.0 0.00 0.00 0.00 86 1003.1
20260906032250 77 152 0.0 0.0 0.00 0.00 0.00 86 1003.1
20260906031745 77 157 0.0 1.0 0.00 0.00 0.00 86 1002.9
20260906031241 77 140 0.0 1.0 0.00 0.00 0.00 85 1002.7
20260906030740 77 190 0.0 0.0 0.00 0.00 0.00 85 1002.5
20260906030236 77 182 0.0 0.0 0.00 0.00 0.00 84 1002.5
20260906025735 77 188 0.0 1.0 0.00 0.00 0.00 84 1002.6
20260906025229 77 252 2.0 2.0 0.00 0.00 0.00 83 1002.7
20260906024728 78 298 2.0 2.0 0.00 0.00 0.00 81 1002.6
20260906024228 78 137 0.0 0.0 0.00 0.00 0.00 79 1002.6
20260906023724 78 136 1.0 1.0 0.00 0.00 0.00 79 1002.6
20260906023219 79 172 0.0 0.0 0.00 0.00 0.00 76 1002.4
20260906022714 79 197 0.0 0.0 0.00 0.00 0.00 75 1002.5
20260906022209 78 160 0.0 0.0 0.00 0.00 0.00 76 1002.3
20260906021706 79 140 0.0 0.0 0.00 0.00 0.00 76 1002.1
20260906021204 79 157 1.0 2.0 0.00 0.00 0.00 74 1002.0
20260906020659 80 164 1.0 2.0 0.00 0.00 0.00 73 1001.8
20260906020154 79 206 1.0 1.0 0.00 0.00 0.00 73 1001.8
20260906015648 80 147 0.0 0.0 0.00 0.00 0.00 75 1001.6
20260906015146 80 155 1.0 1.0 0.00 0.00 0.00 71 1001.4
20260906014641 80 174 1.0 1.0 0.00 0.00 0.00 70 1001.6
20260906014137 79 142 0.0 1.0 0.00 0.00 0.00 74 1001.6
20260906013633 80 102 0.0 1.0 0.00 0.00 0.00 72 1001.8
20260906013128 81 215 1.0 1.0 0.00 0.00 0.00 70 1001.7
20260906012628 81 270 2.0 2.0 0.00 0.00 0.00 69 1001.7
20260906012122 81 96 2.0 2.0 0.00 0.00 0.00 72 1001.8
20260906011618 82 131 1.0 2.0 0.00 0.00 0.00 66 1002.0
20260906011113 82 195 1.0 2.0 0.00 0.00 0.00 68 1002.0
20260906010608 82 235 1.0 2.0 0.00 0.00 0.00 68 1001.9
20260906010104 81 255 5.0 7.0 0.00 0.00 0.00 69 1002.4
20260906005604 82 4 3.0 3.0 0.00 0.00 0.00 68 1003.0
20260906005103 82 348 2.0 2.0 0.00 0.00 0.00 69 1002.7
20260906004602 80 334 2.0 2.0 0.00 0.00 0.00 74 1002.6
20260906004057 83 295 10.0 13.0 0.00 0.00 0.00 75 1002.5
20260906003553 86 352 6.0 8.0 0.00 0.00 0.00 71 1002.2
20260906003049 87 319 7.0 8.0 0.00 0.00 0.00 69 1002.0
20260906002549 87 354 2.0 2.0 0.00 0.00 0.00 70 1001.8
20260906002044 87 204 1.0 1.0 0.00 0.00 0.00 67 1001.7
20260906001539 88 98 0.0 1.0 0.00 0.00 0.00 66 1001.6
20260906001033 88 171 0.0 0.0 0.00 0.00 0.00 65 1001.9
20260906000529 89 123 0.0 0.0 0.00 0.00 0.00 64 1001.4
20260906000024 89 150 1.0 1.0 0.00 0.00 0.00 64 1001.7
20260905235518 89 150 3.0 3.0 0.00 0.00 0.00 63 1001.5
20260905235013 89 215 1.0 2.0 0.00 0.00 0.00 64 1001.7
20260905234509 89 122 0.0 0.0 0.00 0.00 0.00 68 1001.6
20260905234009 89 109 1.0 1.0 0.00 0.00 0.00 63 1001.6
20260905233504 91 169 0.0 1.0 0.00 0.00 0.00 63 1001.7
20260905233003 91 224 0.0 1.0 0.00 0.00 0.00 61 1001.5
20260905232459 91 178 0.0 1.0 0.00 0.00 0.00 60 1001.4
20260905231954 91 143 3.0 3.0 0.00 0.00 0.00 60 1001.3
20260905231450 91 196 3.0 3.0 0.00 0.00 0.00 59 1001.4
20260905230946 91 159 1.0 1.0 0.00 0.00 0.00 61 1001.4
20260905230445 91 174 0.0 0.0 0.00 0.00 0.00 62 1001.5
20260905225943 92 228 2.0 2.0 0.00 0.00 0.00 60 1001.3
20260905225438 93 204 3.0 5.0 0.00 0.00 0.00 60 1001.4
20260905224933 96 234 5.0 7.0 0.00 0.00 0.00 54 1001.3
20260905224429 97 79 1.0 2.0 0.00 0.00 0.00 47 1001.0
20260905223922 97 74 0.0 1.0 0.00 0.00 0.00 54 1001.2
20260905223421 96 219 1.0 1.0 0.00 0.00 0.00 48 1001.2
20260905222921 97 71 2.0 2.0 0.00 0.00 0.00 47 1001.0
20260905222420 98 121 0.0 0.0 0.00 0.00 0.00 49 1001.0
20260905221916 97 148 0.0 0.0 0.00 0.00 0.00 50 1001.1
20260905221413 97 67 0.0 1.0 0.00 0.00 0.00 46 1001.1
20260905220909 98 23 2.0 2.0 0.00 0.00 0.00 48 1001.3
20260905220404 98 70 3.0 3.0 0.00 0.00 0.00 45 1001.3
20260905215903 99 101 1.0 1.0 0.00 0.00 0.00 48 1001.3
20260905215359 99 303 1.0 1.0 0.00 0.00 0.00 46 1001.4
20260905214855 99 170 0.0 0.0 0.00 0.00 0.00 45 1001.2
20260905214350 98 143 1.0 1.0 0.00 0.00 0.00 46 1001.2
20260905213845 99 63 2.0 3.0 0.00 0.00 0.00 45 1001.3
20260905213342 98 98 0.0 0.0 0.00 0.00 0.00 44 1001.1
20260905212841 98 99 2.0 2.0 0.00 0.00 0.00 46 1001.2
20260905212336 98 263 0.0 0.0 0.00 0.00 0.00 49 1001.4
20260905211836 97 293 1.0 2.0 0.00 0.00 0.00 52 1001.2
20260905211331 97 294 3.0 3.0 0.00 0.00 0.00 48 1001.3
20260905210827 96 346 0.0 0.0 0.00 0.00 0.00 51 1001.4
20260905210322 96 341 4.0 6.0 0.00 0.00 0.00 51 1001.3
20260905205821 97 75 0.0 1.0 0.00 0.00 0.00 57 1001.3
20260905205316 96 303 1.0 1.0 0.00 0.00 0.00 53 1001.5
20260905204815 97 15 0.0 1.0 0.00 0.00 0.00 50 1001.6
20260905204311 98 289 1.0 2.0 0.00 0.00 0.00 47 1001.7
20260905203810 98 347 3.0 5.0 0.00 0.00 0.00 49 1001.7
20260905203306 98 318 3.0 3.0 0.00 0.00 0.00 49 1001.7
20260905202801 98 340 6.0 6.0 0.00 0.00 0.00 49 1001.8
20260905202256 99 316 3.0 5.0 0.00 0.00 0.00 48 1001.7
20260905201751 98 22 2.0 3.0 0.00 0.00 0.00 50 1001.8
20260905201246 98 95 0.0 1.0 0.00 0.00 0.00 49 1002.0
20260905200741 98 299 2.0 2.0 0.00 0.00 0.00 49 1002.0
20260905200237 98 51 3.0 3.0 0.00 0.00 0.00 48 1002.3
20260905195735 99 10 3.0 5.0 0.00 0.00 0.00 51 1002.2
20260905195230 98 329 1.0 1.0 0.00 0.00 0.00 50 1002.4
20260905194726 99 165 0.0 0.0 0.00 0.00 0.00 50 1002.6
20260905194225 98 318 1.0 1.0 0.00 0.00 0.00 51 1002.4
20260905193719 100 280 1.0 2.0 0.00 0.00 0.00 49 1002.6
20260905193214 98 131 0.0 0.0 0.00 0.00 0.00 48 1002.5
20260905192710 98 160 1.0 1.0 0.00 0.00 0.00 48 1002.7
20260905192206 98 173 1.0 1.0 0.00 0.00 0.00 49 1002.7
20260905191706 97 94 3.0 5.0 0.00 0.00 0.00 49 1002.8
20260905191204 98 328 4.0 5.0 0.00 0.00 0.00 51 1003.1
20260905190703 97 288 2.0 2.0 0.00 0.00 0.00 50 1003.0
20260905190201 97 303 5.0 6.0 0.00 0.00 0.00 52 1003.0
20260905185701 97 296 1.0 1.0 0.00 0.00 0.00 51 1003.1
20260905185155 96 155 1.0 2.0 0.00 0.00 0.00 54 1003.0
20260905184655 97 78 0.0 1.0 0.00 0.00 0.00 53 1003.4
20260905184154 97 116 3.0 3.0 0.00 0.00 0.00 51 1003.4
20260905183648 98 95 0.0 0.0 0.00 0.00 0.00 53 1003.3
20260905183143 96 345 3.0 3.0 0.00 0.00 0.00 52 1003.5
20260905182643 97 260 0.0 1.0 0.00 0.00 0.00 58 1003.5
20260905182143 97 342 1.0 2.0 0.00 0.00 0.00 52 1003.8
20260905181638 96 223 1.0 1.0 0.00 0.00 0.00 53 1003.9
20260905181137 96 74 0.0 0.0 0.00 0.00 0.00 56 1004.0
20260905180632 96 311 5.0 6.0 0.00 0.00 0.00 56 1004.0
20260905180127 96 0 3.0 3.0 0.00 0.00 0.00 60 1003.9
20260905175626 96 67 1.0 2.0 0.00 0.00 0.00 58 1003.9
20260905175121 95 134 2.0 2.0 0.00 0.00 0.00 58 1003.9
20260905174611 95 68 1.0 2.0 0.00 0.00 0.00 57 1004.1
20260905174106 95 144 1.0 1.0 0.00 0.00 0.00 56 1004.3
20260905173603 94 280 0.0 1.0 0.00 0.00 0.00 60 1003.9
20260905173058 95 76 2.0 2.0 0.00 0.00 0.00 58 1004.2
20260905172556 95 181 3.0 3.0 0.00 0.00 0.00 60 1004.5
20260905172052 94 44 3.0 3.0 0.00 0.00 0.00 59 1004.4
20260905171548 94 324 1.0 1.0 0.00 0.00 0.00 62 1004.0
20260905171044 93 346 1.0 2.0 0.00 0.00 0.00 65 1004.4
20260905170541 93 71 3.0 5.0 0.00 0.00 0.00 62 1004.4
20260905170036 93 306 2.0 2.0 0.00 0.00 0.00 62 1004.4
20260905165530 93 176 2.0 2.0 0.00 0.00 0.00 66 1004.4
20260905165026 92 63 1.0 1.0 0.00 0.00 0.00 64 1004.5
20260905164520 92 72 0.0 1.0 0.00 0.00 0.00 65 1004.7
20260905164015 92 267 2.0 2.0 0.00 0.00 0.00 63 1004.7
20260905163511 92 275 2.0 2.0 0.00 0.00 0.00 64 1004.8
20260905163006 90 274 0.0 0.0 0.00 0.00 0.00 68 1004.9
20260905162502 90 321 2.0 2.0 0.00 0.00 0.00 65 1004.8
20260905161957 91 35 1.0 2.0 0.00 0.00 0.00 67 1005.0
20260905161456 90 28 2.0 2.0 0.00 0.00 0.00 67 1005.1
20260905160954 90 86 1.0 1.0 0.00 0.00 0.00 67 1005.1
20260905160448 89 41 2.0 3.0 0.00 0.00 0.00 68 1005.2
20260905155947 88 334 3.0 3.0 0.00 0.00 0.00 68 1005.2
20260905155443 89 300 1.0 2.0 0.00 0.00 0.00 70 1005.5
20260905154941 88 334 1.0 1.0 0.00 0.00 0.00 72 1005.4
20260905154436 87 334 1.0 1.0 0.00 0.00 0.00 73 1005.3
20260905153932 88 196 1.0 1.0 0.00 0.00 0.00 74 1005.4
20260905153428 86 332 1.0 2.0 0.00 0.00 0.00 74 1005.2
20260905152928 87 277 1.0 1.0 0.00 0.00 0.00 76 1005.2
20260905152428 86 314 1.0 1.0 0.00 0.00 0.00 77 1005.3
20260905151923 85 352 1.0 1.0 0.00 0.00 0.00 79 1005.2
20260905151419 84 76 0.0 0.0 0.00 0.00 0.00 79 1005.4
20260905150918 84 295 2.0 2.0 0.00 0.00 0.00 80 1005.4
20260905150413 84 154 0.0 0.0 0.00 0.00 0.00 81 1005.5
20260905145909 83 88 0.0 0.0 0.00 0.00 0.00 82 1005.4
20260905145404 82 348 1.0 1.0 0.00 0.00 0.00 83 1005.5
20260905144904 82 81 1.0 1.0 0.00 0.00 0.00 83 1005.6
20260905144359 82 25 1.0 1.0 0.00 0.00 0.00 83 1005.5
20260905143858 81 208 0.0 0.0 0.00 0.00 0.00 83 1005.7
20260905143352 81 190 0.0 1.0 0.00 0.00 0.00 84 1005.5
20260905142851 81 72 1.0 1.0 0.00 0.00 0.00 86 1005.6
20260905142350 80 72 1.0 1.0 0.00 0.00 0.00 85 1005.3
20260905141846 80 73 0.0 0.0 0.00 0.00 0.00 85 1005.7
20260905141341 80 96 1.0 1.0 0.00 0.00 0.00 86 1005.4
20260905140838 80 111 0.0 0.0 0.00 0.00 0.00 86 1005.6
20260905140337 80 113 0.0 0.0 0.00 0.00 0.00 86 1005.6
20260905135836 80 113 0.0 0.0 0.00 0.00 0.00 86 1005.4
20260905135332 79 113 0.0 0.0 0.00 0.00 0.00 88 1005.4
20260905134827 79 113 0.0 0.0 0.00 0.00 0.00 88 1005.6
20260905134320 79 114 0.0 0.0 0.00 0.00 0.00 87 1005.5
20260905133815 79 114 0.0 0.0 0.00 0.00 0.00 88 1005.5
20260905133310 78 114 0.0 0.0 0.00 0.00 0.00 89 1005.5
20260905132809 78 114 0.0 0.0 0.00 0.00 0.00 91 1005.7
20260905132306 78 114 0.0 0.0 0.00 0.00 0.00 91 1005.4
20260905131759 78 115 0.0 0.0 0.00 0.00 0.00 89 1005.7
20260905131255 78 173 0.0 0.0 0.00 0.00 0.00 90 1005.8
20260905130749 77 163 0.0 0.0 0.00 0.00 0.00 90 1005.9
20260905130248 77 161 0.0 0.0 0.00 0.00 0.00 90 1005.6
20260905125744 77 166 0.0 1.0 0.00 0.00 0.00 91 1005.9
20260905125239 77 157 1.0 1.0 0.00 0.00 0.00 92 1005.8
20260905124736 76 131 0.0 1.0 0.00 0.00 0.00 93 1006.0
20260905124231 75 160 0.0 0.0 0.00 0.00 0.00 96 1005.8
20260905123726 75 155 0.0 0.0 0.00 0.00 0.00 97 1005.8
20260905123223 74 143 1.0 1.0 0.00 0.00 0.00 98 1005.9
20260905122723 73 175 0.0 0.0 0.00 0.00 0.00 98 1005.8
20260905122217 73 142 0.0 0.0 0.00 0.00 0.00 99 1005.5
20260905121712 73 140 0.0 0.0 0.00 0.00 0.00 99 1005.6
20260905121209 73 140 0.0 0.0 0.00 0.00 0.00 99 1005.6